Regional Weather Roundup
Issued by NWS

Home | Current Version | Previous Version | Graphics & Text | Print | Product List | Glossary On
Versions: 1 2 3 4 5 6 7 8 9 10 11 12 13 14 15 16 17 18 19 20 21 22 23 24 25 26 27
000
ASUS45 KCYS 281310
RWRWY

WYOMING REGIONAL WEATHER ROUNDUP
NATIONAL WEATHER SERVICE CHEYENNE WY
700 AM MDT SUN MAY 28 2017

NOTE:  "FAIR" INDICATES FEW OR NO CLOUDS BELOW 12,000 FEET
WITH NO SIGNIFICANT WEATHER AND/OR OBSTRUCTIONS TO VISIBILITY.

WYZ001-281400-
YELLOWSTONE NATIONAL PARK

CITY           SKY/WX    TMP DP  RH WIND       PRES   REMARKS
LK YELLOWSTONE   N/A     29  28  96 CALM      30.42R
W YELLOWSTONE  NOT AVBL

$$
WYZ002>013-054>058-071-098>099-281400-
NORTHERN WYOMING

CITY           SKY/WX    TMP DP  RH WIND       PRES   REMARKS
JACKSON        SUNNY     34  32  93 CALM      30.39R
CODY           FAIR      50  37  61 S5        30.29R
GREYBULL       PTSUNNY   48  38  68 SW5       30.23R
WORLAND        FAIR      48  41  76 S7        30.23R
SHERIDAN       FAIR      60  40  47 NW13      30.16R
BUFFALO        FAIR      57  38  48 NW10      30.20S
GILLETTE       CLOUDY    52  42  69 W12       30.17R
HULETT         FAIR      55  39  54 W3        30.16R
NEWCASTLE      FAIR      45  43  93 W3        30.17R

$$
WYZ014>020-022>026-101>103-281400-
CENTRAL WYOMING

CITY           SKY/WX    TMP DP  RH WIND       PRES   REMARKS
BIG PINEY      FAIR      34  30  85 CALM      30.38R
PINEDALE       FAIR      32  30  93 NW3       30.38R
DUBOIS         FAIR      37  32  81 NW7       30.36R WCI  32
LANDER         FAIR      45  32  60 E6        30.28R
RIVERTON       FAIR      49  34  56 W13       30.28R
CASPER         FAIR      49  36  61 SW12      30.25R
DOUGLAS        FAIR      46  38  73 NW9       30.23R

$$
WYZ021-027>030-104>119-281400-
SOUTHERN WYOMING

CITY           SKY/WX    TMP DP  RH WIND       PRES   REMARKS
EVANSTON       FAIR      43  30  60 E6        30.36R
KEMMERER         N/A     37  30  75 N9        30.38R WCI  31
FORT BRIDGER   FAIR      45  30  57 W6        30.39R
ROCK SPRINGS   FAIR      40  30  67 SW3       30.35R
DIXON            N/A     37  30  78 E7        30.38S WCI  31
RAWLINS        FAIR      39  32  76 CALM      30.34R
SARATOGA       FAIR      37  32  81 SE7       30.36R WCI  32
LARAMIE        FAIR      34  30  85 SE7       30.32R WCI  28
CHEYENNE       FAIR      46  31  55 W12       30.27R
TORRINGTON     FAIR      46  40  79 NW5       30.17R
PINE BLUFFS    FAIR      45  36  70 W12       30.23R

$$




USA.gov is the U.S. government's official web portal to all federal, state and local government web resources and services.